AirNav   Advertisement
 
 836 users online  

CL07 Queen Mary Heliport
Long Beach, California, USA

GOING TO LONG BEACH?


FAA INFORMATION EFFECTIVE 14 SEPTEMBER 2017

Location

FAA Identifier: CL07
Lat/Long: 33-44-56.8400N / 118-11-24.5200W
33-44.947333N / 118-11.408667W
33.7491222 / -118.1901444
(estimated)
Elevation: 14 ft. / 4 m (estimated)
Variation: 13E (1995)
From city: 1 mile S of LONG BEACH, CA
Time zone: UTC -7 (UTC -8 during Standard Time)
Zip code: 90802

Heliport Operations

Heliport use: Private use. Permission required prior to landing
Activation date: 09/1999
Control tower: no
ARTCC: LOS ANGELES CENTER
FSS: HAWTHORNE FLIGHT SERVICE STATION
Attendance: 0700-1900
Wind indicator: yes
Segmented circle: no

Heliport Communications

WX ASOS at LGB (5 nm NE): PHONE 562-424-0572
WX AWOS-3PT at CPM (9 nm N): 127.150 (310-631-4958)
WX ASOS at HHR (13 nm NW): PHONE 310-973-8930
WX ASOS at FUL (13 nm NE): PHONE 714-870-1372
WX ASOS at LAX (16 nm NW): PHONE 310-568-1486
WX ASOS at SNA (17 nm E): PHONE 714-424-0590

Nearby radio navigation aids

VOR radial/distance  VOR name  Freq  Var
SLIr238/7.1SEAL BEACH VORTAC115.7015E
LAXr117/16.3LOS ANGELES VORTAC113.6015E
SMOr125/20.5SANTA MONICA VOR/DME110.8015E
ELBr267/23.3EL TORO VOR/DME117.2014E
SXCr012/25.2SANTA CATALINA VORTAC111.4015E
POMr210/28.2POMONA VORTAC110.4015E
VNYr137/32.2VAN NUYS VOR/DME113.1015E
PDZr238/34.4PARADISE VORTAC112.2015E
RALr237/(38.9)RIVERSIDE VOR112.4014E

 
NDB name  Hdg/Dist  Freq  Var  ID
BECCA251/5.623314ELG .-.. --.
EL MONTE186/21.835915EEMT . -- -

Heliport Services

Fuel available: A

Runway Information

Helipad H1

Dimensions: 80 x 80 ft. / 24 x 24 m
Surface: asphalt
Operational restrictions: CIRCULAR HELIPAD.
Latitude: 33-44.947333N
Longitude: 118-11.408667W
Elevation: 14.0 ft.
Traffic pattern: leftleft

Helipad H2

Dimensions: 60 x 60 ft. / 18 x 18 m
Surface: asphalt/concrete
Latitude: 33-44.932167N
Longitude: 118-11.401000W
Elevation: 14.0 ft.
Traffic pattern: leftleft

Heliport Ownership and Management from official FAA records

Ownership: Privately-owned
Manager: ISLAND EXPRESS HELICOPTERS`
1175 QUEENS HWY SOUTH
LONG BEACH, CA 90802
Phone 310-510-2525

Heliport Operational Statistics

Aircraft based on the field: 3
Helicopters: 3
    

Instrument Procedures

There are no published instrument procedures at CL07.

Some nearby airports with instrument procedures:

KLGB - Long Beach Airport (Daugherty Field) (5 nm NE)
KSLI - Los Alamitos Army Airfield (7 nm E)
KTOA - Zamperini Field Airport (8 nm NW)
KHHR - Jack Northrop Field/Hawthorne Municipal Airport (13 nm NW)
KFUL - Fullerton Municipal Airport (13 nm NE)
KLAX - Los Angeles International Airport (16 nm NW)
KSNA - John Wayne-Orange County Airport (17 nm E)
 
Loc | Ops | Rwys | IFR | FBO | Links
Com | Nav | Svcs | Stats | Notes


 
Area around CL07 (Queen Mary Heliport)
 
Road maps at: MapQuest Bing Google
 
Aerial photo
WARNING: Photo may not be current or correct
Aerial photo of CL07 (Queen Mary Heliport)
Do you have a better or more recent aerial photo of Queen Mary Heliport that you would like to share? If so, please send us your photo.

 
Sectional chart

 
Airport distance calculator
Flying to Queen Mary Heliport? Find the distance to fly.

From to CL07

Sunrise and sunset
Times for 23-Sep-2017
 Local
(UTC-7)
 Zulu
(UTC)
Morning civil twilight06:1813:18
Sunrise06:4313:43
Sunset18:4801:48
Evening civil twilight19:1302:13

Current date and time
Zulu (UTC)  23-Sep-2017 22:07:33
Local (UTC-7)  23-Sep-2017 15:07:33
 
METAR
KLGB 
5nm NE 
232153Z 18010KT 10SM CLR 22/12 A2984 RMK AO2 SLP103 T02220122
KTOA 
7nm W 
232153Z 27013G18KT 10SM SKC 23/12 A2984
KSLI 
8nm E 
232158Z 21010KT 10SM FEW040 23/12 A2983 RMK AO2A SLP104 T02300118
KHHR 
12nm NW 
232153Z 25010G15KT 10SM CLR 22/14 A2984 RMK AO2 SLP104 T02170139
KFUL 
12nm NE 
232153Z 21007KT 180V250 10SM CLR 24/12 A2982 RMK AO2 SLP097 T02440117
KLAX 
15nm NW 
232153Z 26012KT 10SM SCT020 21/14 A2985 RMK AO2 SLP105 T02110139
KSNA 
17nm E 
232153Z 19012KT 10SM FEW050 22/11 A2984 RMK AO2 SLP103 T02220111
KCQT 
18nm N 
232147Z AUTO VRB05KT 10SM CLR 23/13 A2983 RMK AO2 SLP101 T02280133
TAF
KLGB 
5nm NE 
231726Z 2318/2418 VRB03KT P6SM SKC FM231900 20008KT P6SM SKC FM240100 30010KT P6SM SKC FM240500 VRB03KT P6SM SKC FM240900 VRB03KT P6SM SCT015
KSLI 
8nm E 
231305Z 2313/2419 15006KT 9999 FEW050 QNH2981INS BECMG 2317/2318 21009KT 9999 FEW080 QNH2982INS BECMG 2321/2322 25012KT 9999 FEW090 QNH2980INS BECMG 2400/2401 15009KT 9999 FEW100 QNH2981INS BECMG 2408/2409 VRB06KT 9999 SKC QNH2985INS TX21/2322Z TN13/2315Z
KLAX 
15nm NW 
232001Z 2320/2424 26012KT P6SM SKC FM240400 26007KT P6SM SKC FM240900 VRB03KT P6SM SCT015 FM242000 25012KT P6SM SKC
KSNA 
17nm E 
231732Z 2318/2418 22006KT P6SM SCT025 FM231900 22010KT P6SM FEW030 FM240200 VRB04KT P6SM SKC
NOTAMs
Click for the latest NOTAMs
NOTAMs are issued by the DoD/FAA and will open in a separate window not controlled by AirNav.

 

 
 

Would you like to see your business listed on this page?

 If your business provides an interesting product or service to pilots, flight crews, aircraft, or users of the Queen Mary Heliport, you should consider listing it here.  To start the listing process, click on the button below
 
Add a business
 

Other Pages about Queen Mary Heliport

Update a link
 
Copyright © AirNav, LLC. All rights reserved. Privacy Policy  Contact